Date,TemperatureHighF,TemperatureAvgF,TemperatureLowF,DewpointHighF,DewpointAvgF,DewpointLowF,HumidityHigh,HumidityAvg,HumidityLow,PressureMaxIn,PressureMinIn,WindSpeedMaxMPH,WindSpeedAvgMPH,GustSpeedMaxMPH,PrecipitationSumIn
2013-1-1,18,8,1,-100,-100,-100,0,0,100,0.00,40.00,0,-999,0,0.00
2013-1-2,13,5,-1,-100,-100,-100,0,0,100,0.00,40.00,0,-999,0,0.00
2013-1-3,35,22,7,-100,-100,-100,0,0,100,0.00,40.00,0,-999,0,0.01
2013-1-4,40,30,21,-100,-100,-100,0,0,100,0.00,40.00,0,-999,0,0.01
2013-1-5,26,18,13,-100,-100,-100,0,0,100,0.00,40.00,0,-999,0,0.00
2013-1-6,35,25,20,-100,-100,-100,0,0,100,0.00,40.00,0,-999,0,0.00
2013-1-7,29,22,18,-100,-100,-100,0,0,100,0.00,40.00,0,-999,0,0.00
2013-1-8,23,20,15,-100,-100,-100,0,0,100,0.00,40.00,0,-999,0,0.00
2013-1-9,38,27,19,-100,-100,-100,0,0,100,0.00,40.00,0,-999,0,0.00
2013-1-10,32,26,21,-100,-100,-100,0,0,100,0.00,40.00,0,-999,0,0.00
2013-1-11,20,4,-11,-100,-100,-100,0,0,100,0.00,40.00,0,-999,0,0.00
2013-1-12,1,-8,-15,-100,-100,-100,0,0,100,0.00,40.00,0,-999,0,0.00
2013-1-13,1,-8,-16,-100,-100,-100,0,0,100,0.00,40.00,0,-999,0,0.00
2013-1-14,-1,-9,-15,-100,-100,-100,0,0,100,0.00,40.00,0,-999,0,0.00
2013-1-15,27,15,2,-100,-100,-100,0,0,100,0.00,40.00,0,-999,0,0.01
2013-1-16,30,23,15,-100,-100,-100,0,0,100,0.00,40.00,0,-999,0,0.01
2013-1-17,33,24,19,-100,-100,-100,0,0,100,0.00,40.00,0,-999,0,0.00
2013-1-18,34,26,20,-100,-100,-100,0,0,100,0.00,40.00,0,-999,0,0.00
2013-1-19,33,24,20,-100,-100,-100,0,0,100,0.00,40.00,0,-999,0,0.00
2013-1-20,27,22,18,-100,-100,-100,0,0,100,0.00,40.00,0,-999,0,0.00
2013-1-21,31,24,19,-100,-100,-100,0,0,100,0.00,40.00,0,-999,0,0.00
2013-1-22,37,30,21,-100,-100,-100,0,0,100,0.00,40.00,0,-999,0,0.00
2013-1-23,42,34,30,-100,-100,-100,0,0,100,0.00,40.00,0,-999,0,0.00
2013-1-24,38,29,22,-100,-100,-100,0,0,100,0.00,40.00,0,-999,0,0.00
2013-1-25,38,28,22,-100,-100,-100,0,0,100,0.00,40.00,0,-999,0,0.00
2013-1-26,40,29,24,-100,-100,-100,0,0,100,0.00,40.00,0,-999,0,0.00
2013-1-27,33,26,19,-100,-100,-100,0,0,100,0.00,40.00,0,-999,0,0.00
2013-1-28,18,12,4,-100,-100,-100,0,0,100,0.00,40.00,0,-999,0,0.00
2013-1-29,14,4,-6,-100,-100,-100,0,0,100,0.00,40.00,0,-999,0,0.00
2013-1-30,19,11,-6,-100,-100,-100,0,0,100,0.00,40.00,0,-999,0,0.01
2013-1-31,21,19,15,-100,-100,-100,0,0,100,0.00,40.00,0,-999,0,0.02
2013-2-1,23,20,17,-100,-100,-100,0,0,100,0.00,40.00,0,-999,0,0.02
2013-2-2,29,21,14,-100,-100,-100,0,0,100,0.00,40.00,0,-999,0,0.01
2013-2-3,33,23,16,-100,-100,-100,0,0,100,0.00,40.00,0,-999,0,0.00
2013-2-4,29,23,18,-100,-100,-100,0,0,100,0.00,40.00,0,-999,0,0.00
2013-2-5,34,25,18,-100,-100,-100,0,0,100,0.00,40.00,0,-999,0,0.00
2013-2-6,28,21,11,-100,-100,-100,0,0,100,0.00,40.00,0,-999,0,0.00
2013-2-7,32,17,6,-100,-100,-100,0,0,100,0.00,40.00,0,-999,0,0.00
2013-2-8,32,22,14,-100,-100,-100,0,0,100,0.00,40.00,0,-999,0,0.00
2013-2-9,24,18,10,-100,-100,-100,0,0,100,0.00,40.00,0,-999,0,0.00
2013-2-10,15,7,-3,-100,-100,-100,0,0,100,0.00,40.00,0,-999,0,0.00
2013-2-11,19,5,-8,-100,-100,-100,0,0,100,0.00,40.00,0,-999,0,0.00
2013-2-12,28,17,6,-100,-100,-100,0,0,100,0.00,40.00,0,-999,0,0.00
2013-2-13,27,19,15,-100,-100,-100,0,0,100,0.00,40.00,0,-999,0,0.00
2013-2-14,16,11,6,-100,-100,-100,0,0,100,0.00,40.00,0,-999,0,0.01
2013-2-15,22,15,6,-100,-100,-100,0,0,100,0.00,40.00,0,-999,0,0.01
2013-2-16,37,26,18,-100,-100,-100,0,0,100,0.00,40.00,0,-999,0,0.00
2013-2-17,24,18,4,-100,-100,-100,0,0,100,0.00,40.00,0,-999,0,0.00
2013-2-18,19,10,3,-100,-100,-100,0,0,100,0.00,40.00,0,-999,0,0.00
2013-2-19,31,18,5,-100,-100,-100,0,0,100,0.00,40.00,0,-999,0,0.00
2013-2-20,34,22,12,-100,-100,-100,0,0,100,0.00,40.00,0,-999,0,0.00
2013-2-21,31,16,6,-100,-100,-100,0,0,100,0.00,40.00,0,-999,0,0.00
2013-2-22,21,10,2,-100,-100,-100,0,0,100,0.00,40.00,0,-999,0,0.00
2013-2-23,27,18,11,-100,-100,-100,0,0,100,0.00,40.00,0,-999,0,0.01
2013-2-24,26,13,4,-100,-100,-100,0,0,100,0.00,40.00,0,-999,0,0.01
2013-2-25,35,20,2,-100,-100,-100,0,0,100,0.00,40.00,0,-999,0,0.00
2013-2-26,21,13,2,-100,-100,-100,0,0,100,0.00,40.00,0,-999,0,0.01
2013-2-27,21,11,5,-100,-100,-100,0,0,100,0.00,40.00,0,-999,0,0.00
2013-2-28,24,14,8,-100,-100,-100,0,0,100,0.00,40.00,0,-999,0,0.00
2013-3-1,33,26,15,-100,-100,-100,0,0,100,0.00,40.00,0,-999,0,0.00
2013-3-2,43,31,20,-100,-100,-100,0,0,100,0.00,40.00,0,-999,0,0.00
2013-3-3,41,30,15,-100,-100,-100,0,0,100,0.00,40.00,0,-999,0,0.00
2013-3-4,12,6,-2,-100,-100,-100,0,0,100,0.00,40.00,0,-999,0,0.00
2013-3-5,35,17,-1,-100,-100,-100,0,0,100,0.00,40.00,0,-999,0,0.01
2013-3-6,41,28,17,-100,-100,-100,0,0,100,0.00,40.00,0,-999,0,0.01
2013-3-7,38,27,19,-100,-100,-100,0,0,100,0.00,40.00,0,-999,0,0.00
2013-3-8,42,29,20,-100,-100,-100,0,0,100,0.00,40.00,0,-999,0,0.00
2013-3-9,33,20,7,-100,-100,-100,0,0,100,0.00,40.00,0,-999,0,0.00
2013-3-10,41,25,5,-100,-100,-100,0,0,100,0.00,40.00,0,-999,0,0.00
2013-3-11,25,21,13,-100,-100,-100,0,0,100,0.00,40.00,0,-999,0,0.00
2013-3-12,33,21,8,-100,-100,-100,0,0,100,0.00,40.00,0,-999,0,0.00
2013-3-13,42,34,24,-100,-100,-100,0,0,100,0.00,40.00,0,-999,0,0.01
2013-3-14,47,36,29,-100,-100,-100,0,0,100,0.00,40.00,0,-999,0,0.00
2013-3-15,47,36,31,-100,-100,-100,0,0,100,0.00,40.00,0,-999,0,0.00
2013-3-16,36,27,20,-100,-100,-100,0,0,100,0.00,40.00,0,-999,0,0.01
2013-3-17,27,19,9,-100,-100,-100,0,0,100,0.00,40.00,0,-999,0,0.01
2013-3-18,19,11,5,-100,-100,-100,0,0,100,0.00,40.00,0,-999,0,0.01
2013-3-19,22,14,6,-100,-100,-100,0,0,100,0.00,40.00,0,-999,0,0.01
2013-3-20,37,26,7,-100,-100,-100,0,0,100,0.00,40.00,0,-999,0,0.00
2013-3-21,29,21,9,-100,-100,-100,0,0,100,0.00,40.00,0,-999,0,0.02
2013-3-22,22,12,6,-100,-100,-100,0,0,100,0.00,40.00,0,-999,0,0.01
2013-3-23,16,4,-5,-100,-100,-100,0,0,100,0.00,40.00,0,-999,0,0.00
2013-3-24,11,2,-5,-100,-100,-100,0,0,100,0.00,40.00,0,-999,0,0.00
2013-3-25,31,13,-6,-100,-100,-100,0,0,100,0.00,40.00,0,-999,0,0.00
2013-3-26,37,20,8,-100,-100,-100,0,0,100,0.00,40.00,0,-999,0,0.00
2013-3-27,41,25,13,-100,-100,-100,0,0,100,0.00,40.00,0,-999,0,0.00
2013-3-28,43,30,21,-100,-100,-100,0,0,100,0.00,40.00,0,-999,0,0.01
2013-3-29,42,34,26,-100,-100,-100,0,0,100,0.00,40.00,0,-999,0,0.00
2013-3-30,34,29,23,-100,-100,-100,0,0,100,0.00,40.00,0,-999,0,0.01
2013-3-31,44,31,22,-100,-100,-100,0,0,100,0.00,40.00,0,-999,0,0.00
2013-4-1,37,28,22,-100,-100,-100,0,0,100,0.00,40.00,0,-999,0,0.00
2013-4-2,47,33,19,-100,-100,-100,0,0,100,0.00,40.00,0,-999,0,0.00
2013-4-3,44,33,24,-100,-100,-100,0,0,100,0.00,40.00,0,-999,0,0.00
2013-4-4,50,37,27,-100,-100,-100,0,0,100,0.00,40.00,0,-999,0,0.00
2013-4-5,44,36,27,-100,-100,-100,0,0,100,0.00,40.00,0,-999,0,0.00
2013-4-6,42,31,25,-100,-100,-100,0,0,100,0.00,40.00,0,-999,0,0.01
2013-4-7,37,30,25,-100,-100,-100,0,0,100,0.00,40.00,0,-999,0,0.01
2013-4-8,30,22,13,-100,-100,-100,0,0,100,0.00,40.00,0,-999,0,0.01
2013-4-9,26,14,8,-100,-100,-100,0,0,100,0.00,40.00,0,-999,0,0.01
2013-4-10,33,21,7,-100,-100,-100,0,0,100,0.00,40.00,0,-999,0,0.00
2013-4-11,33,27,23,-100,-100,-100,0,0,100,0.00,40.00,0,-999,0,0.01
2013-4-12,32,24,17,-100,-100,-100,0,0,100,0.00,40.00,0,-999,0,0.01
2013-4-13,36,28,17,-100,-100,-100,0,0,100,0.00,40.00,0,-999,0,0.01
2013-4-14,22,16,8,-100,-100,-100,0,0,100,0.00,40.00,0,-999,0,0.01
2013-4-15,19,12,3,-100,-100,-100,0,0,100,0.00,40.00,0,-999,0,0.00
2013-4-16,18,9,4,-100,-100,-100,0,0,100,0.00,40.00,0,-999,0,0.00
2013-4-17,19,11,3,-100,-100,-100,0,0,100,0.00,40.00,0,-999,0,0.00
2013-4-18,29,15,-7,-100,-100,-100,0,0,100,0.00,40.00,0,-999,0,0.00
2013-4-19,34,26,18,-100,-100,-100,0,0,100,0.00,40.00,0,-999,0,0.01
2013-4-20,39,29,22,-100,-100,-100,0,0,100,0.00,40.00,0,-999,0,0.01
2013-4-21,34,28,18,-100,-100,-100,0,0,100,0.00,40.00,0,-999,0,0.02
2013-4-22,19,14,6,-100,-100,-100,0,0,100,0.00,40.00,0,-999,0,0.02
2013-4-23,32,19,1,-100,-100,-100,0,0,100,0.00,40.00,0,-999,0,0.01
2013-4-24,31,25,20,-100,-100,-100,0,0,100,0.00,40.00,0,-999,0,0.00
2013-4-25,44,34,19,-100,-100,-100,0,0,100,0.00,40.00,0,-999,0,0.01
2013-4-26,49,38,25,-100,-100,-100,0,0,100,0.00,40.00,0,-999,0,0.00
2013-4-27,52,40,30,-100,-100,-100,0,0,100,0.00,40.00,0,-999,0,0.00
2013-4-28,44,37,30,-100,-100,-100,0,0,100,0.00,40.00,0,-999,0,0.00
2013-4-29,47,37,29,-100,-100,-100,0,0,100,0.00,40.00,0,-999,0,0.00
2013-4-30,28,23,17,-100,-100,-100,0,0,100,0.00,40.00,0,-999,0,0.04
2013-5-1,27,17,12,-100,-100,-100,0,0,100,0.00,40.00,0,-999,0,0.02
2013-5-2,38,25,9,-100,-100,-100,0,0,100,0.00,40.00,0,-999,0,0.01
2013-5-3,46,33,21,-100,-100,-100,0,0,100,0.00,40.00,0,-999,0,0.01
2013-5-4,42,32,28,-100,-100,-100,0,0,100,0.00,40.00,0,-999,0,0.00
2013-5-5,43,33,23,-100,-100,-100,0,0,100,0.00,40.00,0,-999,0,0.00
2013-5-6,53,40,27,-100,-100,-100,0,0,100,0.00,40.00,0,-999,0,0.00
2013-5-7,52,40,30,-100,-100,-100,0,0,100,0.00,40.00,0,-999,0,0.00
2013-5-8,51,42,36,-100,-100,-100,0,0,100,0.00,40.00,0,-999,0,0.00
2013-5-9,49,38,30,-100,-100,-100,0,0,100,0.00,40.00,0,-999,0,0.00
2013-5-10,55,40,29,-100,-100,-100,0,0,100,0.00,40.00,0,-999,0,0.00
2013-5-11,52,40,32,-100,-100,-100,0,0,100,0.00,40.00,0,-999,0,0.00
2013-5-12,60,46,34,-100,-100,-100,0,0,100,0.00,40.00,0,-999,0,0.00
2013-5-13,65,52,42,-100,-100,-100,0,0,100,0.00,40.00,0,-999,0,0.00
2013-5-14,63,52,42,-100,-100,-100,0,0,100,0.00,40.00,0,-999,0,0.00
2013-5-15,60,47,36,-100,-100,-100,0,0,100,0.00,40.00,0,-999,0,0.00
2013-5-16,56,42,37,-100,-100,-100,0,0,100,0.00,40.00,0,-999,0,0.00
2013-5-17,54,42,36,-100,-100,-100,0,0,100,0.00,40.00,0,-999,0,0.00
2013-5-18,45,37,33,-100,-100,-100,0,0,100,0.00,40.00,0,-999,0,0.00
2013-5-19,39,36,34,-100,-100,-100,0,0,100,0.00,40.00,0,-999,0,0.03
2013-5-20,38,34,32,-100,-100,-100,0,0,100,0.00,40.00,0,-999,0,0.01
2013-5-21,49,37,29,-100,-100,-100,0,0,100,0.00,40.00,0,-999,0,0.01
2013-5-22,52,41,32,-100,-100,-100,0,0,100,0.00,40.00,0,-999,0,0.00
2013-5-23,56,45,35,-100,-100,-100,0,0,100,0.00,40.00,0,-999,0,0.00
2013-5-24,52,43,36,-100,-100,-100,0,0,100,0.00,40.00,0,-999,0,0.00
2013-5-25,58,48,36,-100,-100,-100,0,0,100,0.00,40.00,0,-999,0,0.00
2013-5-26,58,47,39,-100,-100,-100,0,0,100,0.00,40.00,0,-999,0,0.00
2013-5-27,50,42,35,-100,-100,-100,0,0,100,0.00,40.00,0,-999,0,0.00
2013-5-28,51,40,33,-100,-100,-100,0,0,100,0.00,40.00,0,-999,0,0.00
2013-5-29,39,37,34,-100,-100,-100,0,0,100,0.00,40.00,0,-999,0,0.01
2013-5-30,35,33,30,-100,-100,-100,0,0,100,0.00,40.00,0,-999,0,0.04
2013-5-31,34,31,28,-100,-100,-100,0,0,100,0.00,40.00,0,-999,0,0.03
2013-6-1,51,36,26,-100,-100,-100,0,0,100,0.00,40.00,0,-999,0,0.02
2013-6-2,60,46,33,-100,-100,-100,0,0,100,0.00,40.00,0,-999,0,0.01
2013-6-3,46,40,35,-100,-100,-100,0,0,100,0.00,40.00,0,-999,0,0.01
2013-6-4,40,35,30,-100,-100,-100,0,0,100,0.00,40.00,0,-999,0,0.00
2013-6-5,49,38,27,-100,-100,-100,0,0,100,0.00,40.00,0,-999,0,0.00
2013-6-6,57,46,33,-100,-100,-100,0,0,100,0.00,40.00,0,-999,0,0.01
2013-6-7,61,47,37,-100,-100,-100,0,0,100,0.00,40.00,0,-999,0,0.01
2013-6-8,54,44,36,-100,-100,-100,0,0,100,0.00,40.00,0,-999,0,0.02
2013-6-9,64,51,36,-100,-100,-100,0,0,100,0.00,40.00,0,-999,0,0.00
2013-6-10,66,57,47,-100,-100,-100,0,0,100,0.00,40.00,0,-999,0,0.02
2013-6-11,68,53,43,-100,-100,-100,0,0,100,0.00,40.00,0,-999,0,0.01
2013-6-12,64,50,41,-100,-100,-100,0,0,100,0.00,40.00,0,-999,0,0.01
2013-6-13,62,53,43,-100,-100,-100,0,0,100,0.00,40.00,0,-999,0,0.04
2013-6-14,54,45,35,-100,-100,-100,0,0,100,0.00,40.00,0,-999,0,0.01
2013-6-15,58,46,31,-100,-100,-100,0,0,100,0.00,40.00,0,-999,0,0.01
2013-6-16,64,50,39,-100,-100,-100,0,0,100,0.00,40.00,0,-999,0,0.00
2013-6-17,63,50,39,-100,-100,-100,0,0,100,0.00,40.00,0,-999,0,0.00
2013-6-18,62,51,42,-100,-100,-100,0,0,100,0.00,40.00,0,-999,0,0.02
2013-6-19,69,57,43,-100,-100,-100,0,0,100,0.00,40.00,0,-999,0,0.01
2013-6-20,58,44,38,-100,-100,-100,0,0,100,0.00,40.00,0,-999,0,0.00
2013-6-22,51,42,35,-100,-100,-100,0,0,100,0.00,40.00,0,-999,0,0.04
2013-6-23,56,44,33,-100,-100,-100,0,0,100,0.00,40.00,0,-999,0,0.05
2013-6-24,65,55,43,-100,-100,-100,0,0,100,0.00,40.00,0,-999,0,0.01
2013-6-25,59,50,44,-100,-100,-100,0,0,100,0.00,40.00,0,-999,0,0.01
2013-6-26,65,54,44,-100,-100,-100,0,0,100,0.00,40.00,0,-999,0,0.00
2013-6-27,71,58,47,-100,-100,-100,0,0,100,0.00,40.00,0,-999,0,0.01
2013-6-28,71,60,47,-100,-100,-100,0,0,100,0.00,40.00,0,-999,0,0.00
2013-6-29,64,56,46,-100,-100,-100,0,0,100,0.00,40.00,0,-999,0,0.01
2013-6-30,60,52,45,-100,-100,-100,0,0,100,0.00,40.00,0,-999,0,0.04
2013-7-1,61,53,43,-100,-100,-100,0,0,100,0.00,40.00,0,-999,0,0.03
2013-7-2,67,54,44,-100,-100,-100,0,0,100,0.00,40.00,0,-999,0,0.01
2013-7-3,71,60,47,-100,-100,-100,0,0,100,0.00,40.00,0,-999,0,0.01
2013-7-4,69,56,48,-100,-100,-100,0,0,100,0.00,40.00,0,-999,0,0.01
2013-7-5,61,53,46,-100,-100,-100,0,0,100,0.00,40.00,0,-999,0,0.01
2013-7-6,63,50,44,-100,-100,-100,0,0,100,0.00,40.00,0,-999,0,0.00
2013-7-7,67,54,44,-100,-100,-100,0,0,100,0.00,40.00,0,-999,0,0.01
2013-7-8,70,54,47,-100,-100,-100,0,0,100,0.00,40.00,0,-999,0,0.00
2013-7-9,67,55,45,-100,-100,-100,0,0,100,0.00,40.00,0,-999,0,0.01
2013-7-10,72,58,46,-100,-100,-100,0,0,100,0.00,40.00,0,-999,0,0.00
2013-7-11,69,57,52,-100,-100,-100,0,0,100,0.00,40.00,0,-999,0,0.03
2013-7-12,62,55,50,-100,-100,-100,0,0,100,0.00,40.00,0,-999,0,0.00
2013-7-13,67,57,46,-100,-100,-100,0,0,100,0.00,40.00,0,-999,0,1.13
2013-7-14,66,55,48,-100,-100,-100,0,0,100,0.00,40.00,0,-999,0,0.00
2013-7-15,70,56,47,-100,-100,-100,0,0,100,0.00,40.00,0,-999,0,0.00
2013-7-16,67,58,54,-100,-100,-100,0,0,100,0.00,40.00,0,-999,0,0.00
2013-7-17,70,59,48,-100,-100,-100,0,0,100,0.00,40.00,0,-999,0,0.00
2013-7-18,71,62,52,-100,-100,-100,0,0,100,0.00,40.00,0,-999,0,0.00
2013-7-19,71,60,48,-100,-100,-100,0,0,100,0.00,40.00,0,-999,0,0.01
2013-7-20,72,58,47,-100,-100,-100,0,0,100,0.00,40.00,0,-999,0,0.00
2013-7-21,73,59,46,-100,-100,-100,0,0,100,0.00,40.00,0,-999,0,0.01
2013-7-22,72,59,47,-100,-100,-100,0,0,100,0.00,40.00,0,-999,0,0.00
2013-7-23,70,56,46,-100,-100,-100,0,0,100,0.00,40.00,0,-999,0,0.00
2013-7-24,70,57,45,-100,-100,-100,0,0,100,0.00,40.00,0,-999,0,0.00
2013-7-25,58,54,46,-100,-100,-100,0,0,100,0.00,40.00,0,-999,0,0.00
2013-7-26,70,56,43,-100,-100,-100,0,0,100,0.00,40.00,0,-999,0,0.00
2013-7-27,65,54,46,-100,-100,-100,0,0,100,0.00,40.00,0,-999,0,0.00
2013-7-28,60,51,44,-100,-100,-100,0,0,100,0.00,40.00,0,-999,0,0.01
2013-7-29,62,50,42,-100,-100,-100,0,0,100,0.00,40.00,0,-999,0,0.00
2013-7-30,62,52,42,-100,-100,-100,0,0,100,0.00,40.00,0,-999,0,0.01
2013-7-31,67,54,41,-100,-100,-100,0,0,100,0.00,40.00,0,-999,0,0.00
2013-8-1,68,57,46,-100,-100,-100,0,0,100,0.00,40.00,0,-999,0,0.00
2013-8-2,66,57,47,-100,-100,-100,0,0,100,0.00,40.00,0,-999,0,0.00
2013-8-3,68,55,44,-100,-100,-100,0,0,100,0.00,40.00,0,-999,0,0.01
2013-8-4,71,59,45,-100,-100,-100,0,0,100,0.00,40.00,0,-999,0,0.00
2013-8-5,69,55,47,-100,-100,-100,0,0,100,0.00,40.00,0,-999,0,0.00
2013-8-6,65,56,45,-100,-100,-100,0,0,100,0.00,40.00,0,-999,0,0.00
2013-8-7,69,54,42,-100,-100,-100,0,0,100,0.00,40.00,0,-999,0,0.00
2013-8-8,66,52,42,-100,-100,-100,0,0,100,0.00,40.00,0,-999,0,0.00
2013-8-9,55,48,42,-100,-100,-100,0,0,100,0.00,40.00,0,-999,0,0.01
2013-8-10,67,53,43,-100,-100,-100,0,0,100,0.00,40.00,0,-999,0,0.00
2013-8-11,69,53,45,-100,-100,-100,0,0,100,0.00,40.00,0,-999,0,0.00
2013-8-12,62,53,45,-100,-100,-100,0,0,100,0.00,40.00,0,-999,0,0.00
2013-8-13,59,50,42,-100,-100,-100,0,0,100,0.00,40.00,0,-999,0,0.02
2013-8-14,62,49,38,-100,-100,-100,0,0,100,0.00,40.00,0,-999,0,0.02
2013-8-15,70,56,45,-100,-100,-100,0,0,100,0.00,40.00,0,-999,0,0.00
2013-8-16,75,62,48,-100,-100,-100,0,0,100,0.00,40.00,0,-999,0,0.00
2013-8-17,74,63,51,-100,-100,-100,0,0,100,0.00,40.00,0,-999,0,0.00
2013-8-18,72,66,53,-100,-100,-100,0,0,100,0.00,40.00,0,-999,0,0.00
2013-8-19,72,60,51,-100,-100,-100,0,0,100,0.00,40.00,0,-999,0,0.00
2013-8-20,69,60,54,-100,-100,-100,0,0,100,0.00,40.00,0,-999,0,0.00
2013-8-21,65,56,49,-100,-100,-100,0,0,100,0.00,40.00,0,-999,0,0.00
2013-8-22,65,56,49,-100,-100,-100,0,0,100,0.00,40.00,0,-999,0,0.01
2013-8-23,71,60,49,-100,-100,-100,0,0,100,0.00,40.00,0,-999,0,0.01
2013-8-24,64,55,47,-100,-100,-100,0,0,100,0.00,40.00,0,-999,0,0.00
2013-8-25,66,57,47,-100,-100,-100,0,0,100,0.00,40.00,0,-999,0,0.02
2013-8-26,66,57,48,-100,-100,-100,0,0,100,0.00,40.00,0,-999,0,0.00
2013-8-27,61,56,50,-100,-100,-100,0,0,100,0.00,40.00,0,-999,0,0.00
2013-8-28,69,62,54,-100,-100,-100,0,0,100,0.00,40.00,0,-999,0,0.02
2013-8-29,71,59,50,-100,-100,-100,0,0,100,0.00,40.00,0,-999,0,0.00
2013-8-30,73,60,49,-100,-100,-100,0,0,100,0.00,40.00,0,-999,0,0.00
2013-8-31,67,54,45,-100,-100,-100,0,0,100,0.00,40.00,0,-999,0,0.00
2013-9-1,70,56,44,-100,-100,-100,0,0,100,0.00,40.00,0,-999,0,0.01
2013-9-2,71,57,49,-100,-100,-100,0,0,100,0.00,40.00,0,-999,0,0.00
2013-9-3,63,54,49,-100,-100,-100,0,0,100,0.00,40.00,0,-999,0,0.01
2013-9-4,70,60,48,-100,-100,-100,0,0,100,0.00,40.00,0,-999,0,0.01
2013-9-5,74,61,51,-100,-100,-100,0,0,100,0.00,40.00,0,-999,0,0.00
2013-9-6,70,61,53,-100,-100,-100,0,0,100,0.00,40.00,0,-999,0,0.00
2013-9-8,59,51,45,-100,-100,-100,0,0,100,0.00,40.00,0,-999,0,0.01
2013-9-9,56,47,40,-100,-100,-100,0,0,100,0.00,40.00,0,-999,0,0.00
2013-9-10,57,48,38,-100,-100,-100,0,0,100,0.00,40.00,0,-999,0,0.02
2013-9-11,63,54,42,-100,-100,-100,0,0,100,0.00,40.00,0,-999,0,0.00
2013-9-12,52,47,43,-100,-100,-100,0,0,100,0.00,40.00,0,-999,0,0.00
2013-9-13,55,48,43,-100,-100,-100,0,0,100,0.00,40.00,0,-999,0,0.02
2013-9-14,51,45,41,-100,-100,-100,0,0,100,0.00,40.00,0,-999,0,0.00
2013-9-15,52,45,40,-100,-100,-100,0,0,100,0.00,40.00,0,-999,0,0.02
2013-9-16,61,48,40,-100,-100,-100,0,0,100,0.00,40.00,0,-999,0,0.02
2013-9-17,59,49,43,-100,-100,-100,0,0,100,0.00,40.00,0,-999,0,0.01
2013-9-18,44,37,33,-100,-100,-100,0,0,100,0.00,40.00,0,-999,0,0.00
2013-9-19,42,34,30,-100,-100,-100,0,0,100,0.00,40.00,0,-999,0,0.00
2013-9-20,59,45,31,-100,-100,-100,0,0,100,0.00,40.00,0,-999,0,0.02
2013-9-21,61,49,42,-100,-100,-100,0,0,100,0.00,40.00,0,-999,0,0.02
2013-9-22,58,48,40,-100,-100,-100,0,0,100,0.00,40.00,0,-999,0,0.01
2013-9-23,47,40,33,-100,-100,-100,0,0,100,0.00,40.00,0,-999,0,0.01
2013-9-24,55,44,33,-100,-100,-100,0,0,100,0.00,40.00,0,-999,0,0.01
2013-9-25,47,40,34,-100,-100,-100,0,0,100,0.00,40.00,0,-999,0,0.02
2013-9-26,35,32,30,-100,-100,-100,0,0,100,0.00,40.00,0,-999,0,0.02
2013-9-27,34,28,23,-100,-100,-100,0,0,100,0.00,40.00,0,-999,0,0.04
2013-9-28,40,30,23,-100,-100,-100,0,0,100,0.00,40.00,0,-999,0,0.02
2013-9-29,44,36,29,-100,-100,-100,0,0,100,0.00,40.00,0,-999,0,0.00
2013-9-30,46,41,34,-100,-100,-100,0,0,100,0.00,40.00,0,-999,0,0.00
2013-10-1,45,41,38,-100,-100,-100,0,0,100,0.00,40.00,0,-999,0,0.00
2013-10-2,44,36,30,-100,-100,-100,0,0,100,0.00,40.00,0,-999,0,0.01
2013-10-3,34,31,28,-100,-100,-100,0,0,100,0.00,40.00,0,-999,0,0.03
2013-10-4,24,23,20,-100,-100,-100,0,0,100,0.00,40.00,0,-999,0,0.03
2013-10-5,43,32,17,-100,-100,-100,0,0,100,0.00,40.00,0,-999,0,0.01
2013-10-6,49,37,28,-100,-100,-100,0,0,100,0.00,40.00,0,-999,0,0.01
2013-10-7,57,46,36,-100,-100,-100,0,0,100,0.00,40.00,0,-999,0,0.00
2013-10-8,49,40,33,-100,-100,-100,0,0,100,0.00,40.00,0,-999,0,0.00
2013-10-9,39,35,33,-100,-100,-100,0,0,100,0.00,40.00,0,-999,0,0.00
2013-10-10,43,36,29,-100,-100,-100,0,0,100,0.00,40.00,0,-999,0,0.00
2013-10-11,34,29,22,-100,-100,-100,0,0,100,0.00,40.00,0,-999,0,0.00
2013-10-12,39,29,23,-100,-100,-100,0,0,100,0.00,40.00,0,-999,0,0.00
2013-10-13,38,35,31,-100,-100,-100,0,0,100,0.00,40.00,0,-999,0,0.00
2013-10-21,33,31,27,-100,-100,-100,0,0,100,0.00,40.00,0,-999,0,0.01
2013-10-22,44,34,29,-100,-100,-100,0,0,100,0.00,40.00,0,-999,0,0.00
2013-10-23,45,34,30,-100,-100,-100,0,0,100,0.00,40.00,0,-999,0,0.00
2013-10-24,44,36,30,-100,-100,-100,0,0,100,0.00,40.00,0,-999,0,0.00
2013-10-25,39,35,33,-100,-100,-100,0,0,100,0.00,40.00,0,-999,0,0.00
2013-10-26,47,40,30,-100,-100,-100,0,0,100,0.00,40.00,0,-999,0,0.00
2013-10-27,32,32,32,-100,-100,-100,0,0,100,0.00,40.00,0,-999,0,0.00
2013-10-28,30,27,22,-100,-100,-100,0,0,100,0.00,40.00,0,-999,0,0.00
2013-10-29,35,28,23,-100,-100,-100,0,0,100,0.00,40.00,0,-999,0,0.00
2013-10-30,32,28,26,-100,-100,-100,0,0,100,0.00,40.00,0,-999,0,0.00
2013-10-31,31,26,23,-100,-100,-100,0,0,100,0.00,40.00,0,-999,0,0.00
2013-11-1,28,24,22,-100,-100,-100,0,0,100,0.00,40.00,0,-999,0,0.00
2013-11-2,44,38,26,-100,-100,-100,0,0,100,0.00,40.00,0,-999,0,0.00
2013-11-3,33,27,15,-100,-100,-100,0,0,100,0.00,40.00,0,-999,0,0.01
2013-11-12,45,38,26,-100,-100,-100,0,0,100,0.00,40.00,0,-999,0,0.00
2013-11-13,41,38,33,-100,-100,-100,0,0,100,0.00,40.00,0,-999,0,0.00
2013-11-14,30,25,22,-100,-100,-100,0,0,100,0.00,40.00,0,-999,0,0.00
2013-11-15,27,22,19,-100,-100,-100,0,0,100,0.00,40.00,0,-999,0,0.00
2013-11-16,25,20,18,-100,-100,-100,0,0,100,0.00,40.00,0,-999,0,0.00
2013-11-17,18,18,18,-100,-100,-100,0,0,100,0.00,40.00,0,-999,0,0.00
2013-11-18,38,27,19,-100,-100,-100,0,0,100,0.00,40.00,0,-999,0,0.00
2013-11-19,39,31,27,-100,-100,-100,0,0,100,0.00,40.00,0,-999,0,0.00
2013-11-20,31,23,13,-100,-100,-100,0,0,100,0.00,40.00,0,-999,0,0.00
2013-11-21,13,9,1,-100,-100,-100,0,0,100,0.00,40.00,0,-999,0,0.00
2013-11-22,24,14,3,-100,-100,-100,0,0,100,0.00,40.00,0,-999,0,0.01
2013-11-23,33,25,14,-100,-100,-100,0,0,100,0.00,40.00,0,-999,0,0.00
2013-11-24,41,31,22,-100,-100,-100,0,0,100,0.00,40.00,0,-999,0,0.00
2013-11-25,29,26,21,-100,-100,-100,0,0,100,0.00,40.00,0,-999,0,0.00
2013-11-26,31,25,17,-100,-100,-100,0,0,100,0.00,40.00,0,-999,0,0.00
2013-11-27,40,31,23,-100,-100,-100,0,0,100,0.00,40.00,0,-999,0,0.00
2013-11-28,39,31,22,-100,-100,-100,0,0,100,0.00,40.00,0,-999,0,0.00
2013-11-29,37,31,26,-100,-100,-100,0,0,100,0.00,40.00,0,-999,0,0.00
2013-11-30,33,27,24,-100,-100,-100,0,0,100,0.00,40.00,0,-999,0,0.00
2013-12-1,28,26,23,-100,-100,-100,0,0,100,0.00,40.00,0,-999,0,0.00
2013-12-2,32,29,25,-100,-100,-100,0,0,100,0.00,40.00,0,-999,0,0.00
2013-12-3,2,-5,-13,-100,-100,-100,0,0,100,0.00,40.00,0,-999,0,0.00
2013-12-4,-7,-13,-20,-100,-100,-100,0,0,100,0.00,40.00,0,-999,0,0.00
2013-12-9,6,1,-18,-100,-100,-100,0,0,100,0.00,40.00,0,-999,0,0.00
2013-12-10,11,7,1,-100,-100,-100,0,0,100,0.00,40.00,0,-999,0,0.01
2013-12-11,20,13,1,-100,-100,-100,0,0,100,0.00,40.00,0,-999,0,0.00
2013-12-12,36,26,21,-100,-100,-100,0,0,100,0.00,40.00,0,-999,0,0.00
2013-12-13,24,21,18,-100,-100,-100,0,0,100,0.00,40.00,0,-999,0,0.00
2013-12-14,25,20,15,-100,-100,-100,0,0,100,0.00,40.00,0,-999,0,0.00
2013-12-15,31,28,23,-100,-100,-100,0,0,100,0.00,40.00,0,-999,0,0.00
2013-12-16,30,24,22,-100,-100,-100,0,0,100,0.00,40.00,0,-999,0,0.00
2013-12-17,37,31,24,-100,-100,-100,0,0,100,0.00,40.00,0,-999,0,0.00
2013-12-18,37,30,23,-100,-100,-100,0,0,100,0.00,40.00,0,-999,0,0.00
2013-12-19,23,14,2,-100,-100,-100,0,0,100,0.00,40.00,0,-999,0,0.00
2013-12-20,13,8,1,-100,-100,-100,0,0,100,0.00,40.00,0,-999,0,0.00
2013-12-21,16,12,7,-100,-100,-100,0,0,100,0.00,40.00,0,-999,0,0.00
2013-12-22,14,10,6,-100,-100,-100,0,0,100,0.00,40.00,0,-999,0,0.01
2013-12-23,25,17,5,-100,-100,-100,0,0,100,0.00,40.00,0,-999,0,0.01
2013-12-24,21,16,11,-100,-100,-100,0,0,100,0.00,40.00,0,-999,0,0.01
2013-12-25,27,17,10,-100,-100,-100,0,0,100,0.00,40.00,0,-999,0,0.00
2013-12-26,31,27,23,-100,-100,-100,0,0,100,0.00,40.00,0,-999,0,0.00
2013-12-27,27,26,26,-100,-100,-100,0,0,100,0.00,40.00,0,-999,0,0.00
2013-12-28,18,15,12,-100,-100,-100,0,0,100,0.00,40.00,0,-999,0,0.00
2013-12-29,20,12,8,-100,-100,-100,0,0,100,0.00,40.00,0,-999,0,0.00
2013-12-30,21,20,18,-100,-100,-100,0,0,100,0.00,40.00,0,-999,0,0.00
2013-12-31,24,23,22,-100,-100,-100,0,0,100,0.00,40.00,0,-999,0,0.00
2014-1-1,21,16,11,-100,-100,-100,0,0,100,0.00,40.00,0,-999,0,0.01
2014-1-2,28,18,11,-100,-100,-100,0,0,100,0.00,40.00,0,-999,0,0.00